Location: Peterborough
(44.3091°N, 78.3197°W)
Time: 19:17:08
(UTC-04:00)

A-11 Canister half - Pass Details

Date: 30 March 2023
Orbit: 1526 x 1682 km, 47.3° (Epoch: 06 June)

Event Time Altitude Azimuth Distance (km) Brightness Sun altitude
Rises 22:59:00 0° 294° (WNW) 4,854 12.5 -32.6°
Reaches altitude 10° 23:02:30 10° 286° (WNW) 3,842 11.7 -33.0°
Maximum altitude 23:10:56 35° 226° (SW) 2,349 9.8 -33.9°
Enters shadow 23:11:47 34° 216° (SW) 2,364 9.8 -34.0°
